www.pogodaiklimat.ru
ПОГОДА в Эсканабе
Время
и дата
04:56 29.11
05:56 29.11
06:56 29.11
07:56 29.11
08:56 29.11
09:56 29.11
10:56 29.11
11:56 29.11
12:56 29.11
13:56 29.11
14:56 29.11
15:44 29.11
15:56 29.11
16:52 29.11
16:56 29.11
17:56 29.11
18:32 29.11
18:56 29.11
19:41 29.11
19:56 29.11
20:56 29.11
21:56 29.11
22:56 29.11
23:56 29.11
00:56 30.11
01:56 30.11
02:56 30.11
03:56 30.11
04:56 30.11
05:56 30.11
06:56 30.11
07:56 30.11
08:56 30.11
09:56 30.11
10:56 30.11
11:56 30.11
12:56 30.11
13:56 30.11
14:56 30.11
15:56 30.11
16:56 30.11
17:56 30.11
18:56 30.12
19:56 30.11
20:56 30.11
21:56 30.11
22:56 30.11
23:56 30.11
Ветер
(напр.,м/с)
Видим. Явления Облачность Т
(С)
Тd
(С)
f
(%)
Тe
(С)
Тes
(С)
Комфортность P
(гПа)
Po
(гПа)
Тmin
(С)
Tmax
(С)
R
(мм)
R24
(мм)
S
(см)
штиль 0 16 км ясно 0.0 -2.8 81 -1 -1 1010.0 987.7
штиль 0 16 км ясно 0.0 -2.8 81 -1 -1 1010.1 987.7
Ю 1 16 км ясно +0.6 -2.2 81 -3 -3 1009.8 987.3 -2.2 +1.7
штиль 0 16 км ясно -0.6 -2.2 89 -2 -2 1009.8 987.3
З 1 16 км ясно +0.6 -1.7 85 -3 -3 1009.9 987.3
ЮЗ 1 16 км ясно +2.8 -1.1 75 -1 -1 1010.3 988.0
З 2 16 км ясно +5.0 -1.1 65 +1 +1 1010.4 988.0
З 2
{3}
16 км ясно +6.7 -1.1 57 +3 +4 1010.4 988.0
СЗ 3
{4}
16 км 2/2 1080 м +7.2 -1.7 53 +3 +4 1010.3 988.0 -0.6 +7.2
СЗ 3
{4}
16 км 10/10 1080 м +5.6 -2.2 57 +1 +1 1010.6 988.3
СЗ 3
{4}
16 км 10/10 1020 м +5.0 -1.7 62 0 0 1011.3 989.0
СЗ 3
{4}
16 км 10/10 840 м +4.0 -2.0 65 -2 -2 989.7
СЗ 3
{5}
16 км 10/10 720 м +3.3 -1.7 70 -2 -2 1012.0 989.7
СЗ 3 16 км 10/10 900 м +3.0 -3.0 65 -2 -2 990.3
СЗ 3 16 км 10/10 900 м +2.8 -2.8 67 -3 -3 1012.8 990.3
СЗ 2 16 км 10/10 870 м +2.2 -3.3 67 -2 -2 1014.1 991.6
СЗ 4
{5}
16 км слабый дождь 10/10 810 м +2.0 -4.0 64 -4 -4 992.0
С 2
{4}
16 км 8/8 990 м +1.1 -4.4 67 -4 -4 1015.2 992.6 +1.1 +7.2
СЗ 3
{5}
16 км 10/10 840 м +1.0 -6.0 60 -5 -5 993.3
СЗ 3
{4}
16 км 10/10 840 м +0.6 -5.0 66 -6 -6 1015.8 993.0
СЗ 3
{4}
16 км 10/10 780 м 0.0 -5.0 69 -7 -7 1016.3 993.6
СЗ 3
{5}
16 км 10/10 720 м -0.6 -4.4 75 -8 -8 1016.7 994.0
СЗ 4
{5}
16 км 10/10 600 м -1.1 -5.0 75 -9 -9 1016.9 994.3
СЗ 3
{5}
14 км слабый снег 10/10 660 м -1.1 -5.0 75 -8 -8 1017.5 995.0
СЗ 4
{5}
14 км слабый снег 10/10 660 м -1.1 -5.6 71 -9 -9 1017.4 995.0 -1.1 +1.1
С 2
{5}
16 км 10/10 660 м -1.7 -5.6 75 -7 -7 1017.6 995.0
С 2
{5}
14 км слабый снег 10/10 660 м -1.7 -6.1 72 -7 -7 1018.3 995.6
СЗ 3
{4}
14 км слабый снег 10/10 600 м -2.2 -6.1 75 -10 -10 1018.4 995.6
С 3
{4}
14 км слабый снег 10/10 750 м -2.2 -6.7 71 -10 -10 1018.3 995.6
С 3
{5}
14 км слабый снег 10/10 690 м -2.2 -6.7 71 -9 -9 1018.8 996.0
С 3
{4}
16 км слабый снег 10/10 690 м -2.2 -6.7 71 -9 -9 1018.8 996.0 -2.2 -1.1
С 4
{4}
14 км слабый снег 10/10 630 м -2.2 -6.7 71 -10 -10 1019.3 996.3
С 2
{4}
14 км слабый снег 10/10 630 м -2.2 -6.1 75 -9 -9 1019.5 996.6
С 2
{4}
14 км слабый снег 10/10 690 м -2.2 -6.7 71 -9 -9 1019.7 996.6
С 3
{5}
16 км 10/10 690 м -2.2 -6.7 71 -9 -9 1019.6 996.6
С 3
{4}
16 км 10/10 750 м -2.2 -6.7 71 -10 -10 1018.9 996.3
С 4
{5}
16 км 10/10 810 м -1.7 -7.2 66 -9 -9 1018.4 995.6 -2.2 -1.7
С 3
{5}
16 км 10/10 810 м -1.7 -7.2 66 -9 -9 1017.8 995.0
С 2
{4}
16 км 10/10 810 м -1.7 -6.7 69 -8 -8 1017.7 995.0
С 3
{5}
16 км 10/10 810 м -2.2 -7.2 69 -10 -10 1017.7 995.0
С 2 16 км 10/10 810 м -2.2 -7.2 69 -8 -8 1018.5 995.6
С 2
{4}
14 км слабый снег 10/10 810 м -2.2 -7.2 69 -8 -8 1018.5 995.6
С 3
{4}
14 км слабый снег 10/10 750 м -2.2 -6.7 71 -9 -9 1018.4 995.6 -2.2 -1.7
С 2
{4}
16 км 10/10 750 м -2.2 -7.2 69 -8 -8 1018.2 995.6
С 2
{3}
16 км 10/10 810 м -2.2 -7.2 69 -8 -8 1017.8 995.0
С 3
{4}
16 км 10/10 810 м -2.2 -7.2 69 -9 -9 1017.7 995.0
С 3
{5}
16 км 10/10 810 м -2.2 -7.2 69 -9 -9 1017.3 994.6
С 3
{4}
16 км 10/10 810 м -2.2 -7.2 69 -9 -9 1017.5 994.6
Местоположение метеостанции Delta County Airport: широта 45.7500 долгота -87.0333 высота над уровнем моря 180 м.
В архиве по умолчанию представлена погода в Эсканабе за последние 1-2 суток. Обновление информации о фактической погоде в базе происходит ежечасно! Архивные данные за месяц целиком и за предыдущие месяцы Вы можете получить, выбрав интересующий диапазон дат из раскрывающегося списка и нажав кнопку "Ввод!".
Внимание! Архив погоды МЕТАР в базе сайта по станциям, не включенным в климатический монитор, хранится не более 60 дней. Нет смысла пытаться выбрать более раннюю дату.
*Определитесь, кто Вы:
Внимание! Время в таблицах - местное (без учета летнего времени). Для получения всемирного времени необходимо вычесть поправку, которая равна -5 ч.
Смотрите также архив погоды в соседних городах и на ближайших метеорологических станциях:
Партнеры нашего сайта:      
Пояснения к столбцам:
  • Ветер - указаны скорость ветра в м/с - средняя за 10 мин, порывы в срок и между сроками (в фигурных скобках) и направление, откуда дует ветер: С - северный,
  • СВ - северо-восточный, В - восточный, ЮВ - юго-восточный, Ю - южный, ЮЗ - юго-западный, З - западный, СЗ - северо-западный.
  • Видимость - горизонтальная дальность видимости в метрах или километрах. При видимости от 1 до 10 км при отсутствии осадков обычно наблюдается дымка, при ухудшении видимости до 1 км и менее - туман. В сухую погоду видимость может ухудшаться дымом, пылью или мглою.
  • Явления - указаны атмосферные явления, наблюдавшиеся в срок или в последний час перед сроком; фигурными скобками обозначены явления, наблюдавшиеся между сроками (за 1-3 часа до срока); квадратными скобками обозначены град или гололедные отложения с указанием их диаметра в мм.
  • Облачность - указаны через наклонную черту общая и нижняя облачность в баллах и высота нижней границы облаков в метрах; квадратными скобками обозначены формы облаков: Ci - перистые, Cs - перисто-слоистые, Cc - перисто-кучевые, Ac - высококучевые, As - высокослоистые, Sc - слоисто-кучевые, Ns - слоисто-дождевые, Cu - кучевые, Cb - кучево-дождевые. Подробнее классификацию облаков см. в Атласе облаков (PDF).
  • T - Температура воздуха - температура, измеренная на высоте 2 м над землей.
  • Td - Температура точки росы - температура, при понижении до которой содержащийся в воздухе водяной пар достигнет насыщения.
  • f - Относительная влажность воздуха - влажноcть воздуха, измеренная на высоте 2 м над землей.
  • Te - Эффективная температура - температура, которую ощущает одетый по сезону человек в тени. Характеристика душности погоды. При расчете учитывается влияние влажности воздуха и скорости ветра на теплоощущения человека.
  • Tes - Эффективная температура на солнце - температура, которую ощущает человек, с поправкой на солнечный нагрев. Характеристика знойности погоды. Зависит от высоты солнца над горизонтом, облачности и скорости ветра. Ночью, в пасмурную погоду, а также при ветре 12 м/с и более поправка равна нулю.
  • P - Атмосферное давление - приведенное к уровню моря атмосферное давление.
  • Po - Атмосферное давление - измеренное на уровне метеостанции атмосферное давление.
  • Tmin - Минимальная температура - минимум температуры воздуха на высоте 2 м над землей.
  • Tmax - Максимальная температура - максимум температуры воздуха на высоте 2 м над землей.
  • R - Количество осадков - Количество выпавших осадков за период времени, мм. При наведении курсора мыши на число - период времени, за который выпало указанное количество осадков.
  • R24 - Количество осадков - Количество выпавших осадков за 24 часа, мм.
  • S - Снежный покров - Высота снежного покрова, см. При наведении курсора мыши на число - состояние снежного покрова и степень покрытия местности в баллах.